Location: Knowlton
(51.2333°N, 1.2667°E)
Time: 04:37:16
(UTC+00:00)

Cosmos 2297 Rocket - Pass Details

Date: 18 April 2021
Orbit: 838 x 844 km, 71.0° (Epoch: 06 May)

Event Time Altitude Azimuth Distance (km) Brightness Sun altitude
Rises 23:27:19 0° 258° (WSW) 3,394 5.3 -27.3°
Reaches altitude 10° 23:30:20 10° 274° (W) 2,463 4.7 -27.4°
Maximum altitude 23:34:38 22° 324° (NW) 1,775 4.4 -27.4°
Drops below altitude 10° 23:38:59 10° 14° (NNE) 2,474 5.5 -27.5°
Sets 23:42:02 0° 30° (NNE) 3,413 6.2 -27.5°
